Location: Rounton
(54.4000°N, 1.3500°W)
Time: 04:10:10
(UTC+00:00)

S-56A Canister/Altair - Pass Details

Date: 08 December 2021
Orbit: 633 x 2499 km, 38.9° (Epoch: 17 January)

Event Time Altitude Azimuth Distance (km) Brightness Sun altitude
Rises 20:23:31 0° 189° (S) 5,905 12.0 -39.4°
Enters shadow 20:27:30 - 178° (S) 5,117 11.5 -39.9°
Reaches altitude 10° 20:31:02 10° 165° (SSE) 4,530 - -40.4°
Maximum altitude 20:35:00 12° 145° (SE) 4,099 - -41.0°
Drops below altitude 10° 20:38:36 10° 126° (SE) 4,019 - -41.4°
Sets 20:44:09 0° 98° (E) 4,556 - -42.2°
